Find Starlink 31479

NORAD ID: 59316 Int'l Des: 2024-056 Owner: SPXS Country: US Constellation: starlink operational
LEOCIRCULAR

Live-Position

3D-Globus wird geladen...

Über Starlink 31479

Beschreibung wird geladen...

Nächste Überflüge

Passes for default location (London). Set your location on the main map for personalized predictions.

Höhenverlauf

Loading altitude history...

Zweizeiliger Elementsatz

1 59316U 24056W 26132.35274586 .00000523 00000-0 28532-4 0 9999
2 59316 43.0028 235.2459 0001365 260.7997 99.2701 15.27578250120843
Epoch: 12. Mai 2026 • Age: 29 hours

Aktueller Status

Höhe 487.0 km
Geschwindigkeit 7.62 km/s
Subsatellitenpunkt -20.08°S, 4.41°W
Startdatum 24. März 2024
Alter 2.1 years
Typ internet

Technische Details

Klassifizierung Payload
Masse 730.00 kg
Trockenmasse 700.00 kg
Gesamtmasse 730.00 kg
Länge 0.30 m
Durchmesser 4.10 m
Spannweite 29.00 m
Form Box + pan
Hersteller SPXS
Bus-Typ Starlink V2M
Phasenstatus In Orbit
Besitzer/Staat SPXS/US

Most Searched